Location: Colonia Mina de C?rbuni
(46.1667°N, 22.7167°E)
Time: 17:06:38
(UTC+00:00)

COSMOS 2428 - Pass Details

Date: 04 February 2023
Orbit: 843 x 858 km, 70.9° (Epoch: 30 March)

Event Time Altitude Azimuth Distance (km) Brightness Sun altitude
Rises 18:14:31 0° 203° (SSW) 3,390 6.1 -27.3°
Reaches altitude 10° 18:16:56 10° 203° (SSW) 2,458 5.3 -27.7°
Enters shadow 18:21:43 65° 198° (SSW) 923 2.8 -28.6°
